OE3XAM-13 Weather Reports


Display with metric or nautical units.
time (UTC)temp
F
wind
direction
speed
MPH
gust
MPH
rain 1hr
in
rain 24hr
in
rain mn
in
humidity
%
barometer
mb
20260502181128 65 0 1.0 0.0 0.00 0.00 0.00 33 983.0
20260502164128 76 0 4.0 0.0 0.00 0.00 0.00 21 982.0
20260502161128 78 0 3.0 0.0 0.00 0.00 0.00 20 983.0
20260502151128 80 0 3.0 0.0 0.00 0.00 0.00 17 984.0
20260502121128 76 0 3.0 0.0 0.00 0.00 0.00 19 986.0
20260502114128 77 0 3.0 0.0 0.00 0.00 0.00 22 987.0
20260502111128 75 0 3.0 0.0 0.00 0.00 0.00 25 987.0
20260502104128 74 0 3.0 0.0 0.00 0.00 0.00 26 987.0
20260502101128 73 0 5.0 0.0 0.00 0.00 0.00 27 988.0
20260502091128 70 0 2.0 0.0 0.00 0.00 0.00 33 988.0
20260502071128 54 0 3.0 0.0 0.00 0.00 0.00 57 990.0
20260502064128 51 0 2.0 0.0 0.00 0.00 0.00 66 989.0
20260502061128 46 0 1.0 0.0 0.00 0.00 0.00 75 989.0
20260502054128 43 0 0.0 0.0 0.00 0.00 0.00 82 989.0
20260502051128 40 0 0.0 0.0 0.00 0.00 0.00 83 989.0
20260502044128 39 0 0.0 0.0 0.00 0.00 0.00 83 989.0
20260502041128 38 0 1.0 0.0 0.00 0.00 0.00 83 989.0
20260502034128 39 0 0.0 0.0 0.00 0.00 0.00 82 989.0
20260502031128 39 0 0.0 0.0 0.00 0.00 0.00 81 990.0
20260502024128 40 0 0.0 0.0 0.00 0.00 0.00 81 990.0
20260502021128 40 0 2.0 0.0 0.00 0.00 0.00 81 990.0
20260502014128 41 0 1.0 0.0 0.00 0.00 0.00 80 990.0
20260502011128 41 0 0.0 0.0 0.00 0.00 0.00 79 990.0
20260502004128 42 0 1.0 0.0 0.00 0.00 0.00 78 990.0
20260502001128 42 0 1.0 0.0 0.00 0.00 0.00 77 990.0
20260501234128 43 0 1.0 0.0 0.00 0.00 0.00 76 990.0
20260501231128 43 0 3.0 0.0 0.00 0.00 0.00 75 990.0
20260501224128 44 0 2.0 0.0 0.00 0.00 0.00 74 990.0
20260501221128 45 0 0.0 0.0 0.00 0.00 0.00 72 991.0
20260501214128 46 0 0.0 0.0 0.00 0.00 0.00 70 990.0
20260501211128 47 0 3.0 0.0 0.00 0.00 0.00 69 990.0
20260501204128 48 0 2.0 0.0 0.00 0.00 0.00 67 990.0
20260501201128 49 0 2.0 0.0 0.00 0.00 0.00 65 990.0
20260501194128 50 0 2.0 0.0 0.00 0.00 0.00 62 990.0
20260501191128 52 0 2.0 0.0 0.00 0.00 0.00 60 990.0
20260501184128 55 0 4.0 0.0 0.00 0.00 0.00 54 990.0